Flag for China Weather past 2 weeks in Nanning, Guangxi, China

Now
54 °F

Drizzle. Fog.


Feels Like: 51 °F
Forecast: 56 / 69 °F
Wind: 8 mph from Northeast

Location: Nanning Airport

Current Time: Mar 5, 2015 at 3:02:18 AM

Latest Report: Mar 5, 2015 at 2:00 AM


Visibility: 2 mi

Pressure: 29.95 "Hg

Humidity: 100%

Dew point: 54 °F

Location of NanningLocation

Historic Weather in Nanning — Graph

°F

Nanning temperature yesterday

Maximum temperature yesterday: 59 °F (at 12:00 AM)
Minimum temperature yesterday: 55 °F (at 6:00 PM)
Average temperature yesterday: 58 °F

Past Weeks' High & Low Weather Summary

 TemperatureHumidityPressure
High88 °F (Feb 25, 3:00 PM)100% (Feb 18, 6:00 AM)30.27 "Hg (Feb 18, 6:00 AM)
Low54 °F (Mar 1, 5:00 AM)40% (Feb 25, 3:00 PM)29.68 "Hg (Feb 25, 4:00 PM)
Average68 °F83%29.92 "Hg
* Reported Feb 18 1:00 AM — Mar 5 1:00 AM, Nanning, Weather by CustomWeather, © 2015

Note: Actual official high and low records may vary slightly from our data, if they occured in-between our weather recording intervals... More about our weather records

Advertising

Nanning weather history for previous 24 hours

 ConditionsComfort  
Time TempWeatherWind HumidityBarometerVisibility
1:00 AM
Thu, Mar 5
54 °FDrizzle. Fog.6 mph100%29.95 "Hg2 mi
12:00 AM54 °FDrizzle. Fog.6 mph100%29.98 "Hg2 mi
11:00 PM
Wed, Mar 4
55 °FFog.8 mph88%29.95 "Hg3 mi
10:00 PM55 °FFog.6 mph88%29.95 "Hg3 mi
9:00 PM55 °FFog.6 mph88%29.95 "Hg3 mi
8:00 PM55 °FFog.6 mph88%29.92 "Hg2 mi
7:00 PM55 °FDrizzle. Fog.6 mph94%29.92 "Hg2 mi
6:00 PM55 °FDrizzle. Fog.6 mph88%29.92 "Hg2 mi
5:00 PM57 °FScattered clouds.6 mph82%29.89 "Hg4 mi
4:00 PM59 °FPartly sunny.8 mph77%29.89 "HgN/A
3:00 PM59 °FPartly sunny.6 mph72%29.92 "HgN/A
2:00 PM59 °FPartly sunny.6 mph72%29.95 "HgN/A
1:00 PM59 °FMostly cloudy.6 mph72%29.98 "HgN/A
12:00 PM59 °FMostly cloudy.8 mph68%30.01 "HgN/A
11:00 AM59 °FMore clouds than sun.6 mph68%30.04 "HgN/A
10:00 AM59 °FMore clouds than sun.3 mph68%30.04 "HgN/A
9:00 AM57 °FMore clouds than sun.8 mph67%30.01 "HgN/A
8:00 AM57 °FMore clouds than sun.6 mph72%29.98 "HgN/A
7:00 AM57 °FPassing clouds.6 mph72%29.95 "HgN/A
6:00 AM57 °FPassing clouds.3 mph67%29.92 "HgN/A
5:00 AM57 °FPassing clouds.3 mph72%29.92 "HgN/A
4:00 AM57 °FPassing clouds.6 mph72%29.92 "HgN/A
3:00 AM57 °FClear.6 mph72%29.92 "Hg10 mi
Weather by CustomWeather, © 2015

See weather overviewHow to use our weather pages